Date String (YYYY-MM-DD hh:mm:ss) UTC,Instrument flags,absolute air pressure of the measurement (hPa),sample flow rate (lpm),inlet stack bypass flow (lpm),air temperature of the measurement (°C),ambient temperature measured by the external sensor (°C),aerosol sample conditioner tube jacket temperature (°C),OPC LED temperature (°C),internal box temperature (°C),relative humidity of the measurement (%),span deviation,mass concentration of particles derived from Lorenz-Mie calculation of OPC scattering (μg/m³),mass concentration of particles derived from Lorenz-Mie calculation of OPC scattering (μg/m³),mass concentration of particles derived from Lorenz-Mie calculation of OPC scattering (μg/m³)
DateTimeUTC,F1_M11,P_M11,Q1_M11,Q2_M11,T1_M11,T2_M11,T3_M11,T4_M11,T5_M11,U1_M11,ZSPAN_M11,X0_M11,X2_M11,X1_M11
2024-01-27 21:00:00,SystemResetWarning,0835.1,4.99,000.00,024.6,024.0,000.0,032.7,026.0,09.5,0000.0,0011.62,0005.48,0004.83
2024-01-27 21:01:00,SystemResetWarning,0835.1,4.99,000.00,024.6,024.0,000.0,032.7,026.0,09.7,0000.0,0012.44,0005.51,0004.83
2024-01-27 21:02:00,SystemResetWarning,0835.2,4.99,000.00,024.6,024.0,000.0,032.7,026.0,09.8,0000.0,0012.62,0005.50,0004.82
2024-01-27 21:03:00,SystemResetWarning,0835.1,5.00,000.00,024.6,024.0,000.0,032.7,026.0,09.8,0000.0,0013.29,0005.50,0004.83
2024-01-27 21:04:00,SystemResetWarning,0835.1,5.01,000.00,024.6,024.1,000.0,032.8,026.0,09.6,0000.0,0013.54,0005.46,0004.82
2024-01-27 21:05:00,SystemResetWarning,0835.2,5.01,000.00,024.6,024.1,000.0,032.8,026.1,09.7,0000.0,0013.49,0005.47,0004.82
2024-01-27 21:06:00,SystemResetWarning,0835.2,5.00,000.00,024.7,024.1,000.0,032.8,026.1,09.6,0000.0,0013.61,0005.48,0004.82
2024-01-27 21:07:00,SystemResetWarning,0835.1,5.01,000.00,024.7,024.1,000.0,032.8,026.1,09.5,0000.0,0013.63,0005.47,0004.82
2024-01-27 21:08:00,SystemResetWarning,0835.1,5.00,000.00,024.7,024.1,000.0,032.8,026.1,09.7,0000.0,0013.39,0005.46,0004.82
2024-01-27 21:09:00,SystemResetWarning,0835.1,4.99,000.00,024.7,024.1,000.0,032.8,026.1,09.5,0000.0,0012.82,0005.42,0004.81
2024-01-27 21:10:00,SystemResetWarning,0835.1,5.00,000.00,024.7,024.1,000.0,032.9,026.1,09.4,0000.0,0012.88,0005.39,0004.80
2024-01-27 21:11:00,SystemResetWarning,0835.1,5.00,000.00,024.7,024.1,000.0,032.9,026.1,09.4,0000.0,0012.92,0005.38,0004.80
2024-01-27 21:12:00,SystemResetWarning,0835.0,5.00,000.00,024.7,024.1,000.0,032.9,026.1,09.2,0000.0,0012.27,0005.39,0004.82
2024-01-27 21:13:00,SystemResetWarning,0835.0,5.00,000.00,024.7,024.2,000.0,032.9,026.1,09.4,0000.0,0011.99,0005.40,0004.81
2024-01-27 21:14:00,SystemResetWarning,0835.0,5.00,000.00,024.8,024.2,000.0,032.9,026.1,09.4,0000.0,0011.60,0005.36,0004.78
2024-01-27 21:15:00,SystemResetWarning,0834.9,5.01,000.00,024.8,024.2,000.0,032.9,026.1,09.2,0000.0,0010.96,0005.33,0004.76
2024-01-27 21:16:00,SystemResetWarning,0834.9,5.01,000.00,024.8,024.2,000.0,032.9,026.2,09.3,0000.0,0010.85,0005.31,0004.73
2024-01-27 21:17:00,SystemResetWarning,0834.9,5.00,000.00,024.8,024.2,000.0,032.9,026.2,09.3,0000.0,0010.66,0005.29,0004.73
2024-01-27 21:18:00,SystemResetWarning,0834.9,5.00,000.00,024.8,024.2,000.0,033.0,026.2,09.3,0000.0,0010.62,0005.27,0004.73
2024-01-27 21:19:00,SystemResetWarning,0835.0,5.00,000.00,024.8,024.2,000.0,033.0,026.2,09.4,0000.0,0010.50,0005.24,0004.72
2024-01-27 21:20:00,SystemResetWarning,0835.0,4.99,000.00,024.8,024.3,000.0,033.0,026.3,09.1,0000.0,0010.47,0005.26,0004.74
2024-01-27 21:21:00,SystemResetWarning,0835.0,5.00,000.00,024.8,024.3,000.0,033.0,026.3,08.7,0000.0,0010.23,0005.28,0004.73
2024-01-27 21:22:00,SystemResetWarning,0835.0,5.00,000.00,024.9,024.3,000.0,033.0,026.3,08.6,0000.0,0010.16,0005.22,0004.71
2024-01-27 21:23:00,SystemResetWarning,0835.0,5.00,000.00,024.9,024.3,000.0,033.0,026.3,08.7,0000.0,0010.18,0005.19,0004.68
2024-01-27 21:24:00,SystemResetWarning,0835.0,5.00,000.00,024.9,024.3,000.0,033.0,026.3,08.7,0000.0,0010.21,0005.19,0004.68
2024-01-27 21:25:00,SystemResetWarning,0835.0,5.00,000.00,024.9,024.3,000.0,033.1,026.3,08.7,0000.0,0009.86,0005.22,0004.72
2024-01-27 21:26:00,SystemResetWarning,0835.0,4.99,000.00,024.9,024.4,000.0,033.1,026.3,09.0,0000.0,0009.54,0005.28,0004.75
2024-01-27 21:27:00,SystemResetWarning,0835.0,5.00,000.00,024.9,024.4,000.0,033.1,026.3,08.8,0000.0,0009.66,0005.33,0004.78
2024-01-27 21:28:00,SystemResetWarning,0835.0,5.01,000.00,025.0,024.4,000.0,033.1,026.4,08.8,0000.0,0010.07,0005.33,0004.79
2024-01-27 21:29:00,SystemResetWarning,0835.0,5.00,000.00,025.0,024.4,000.0,033.1,026.4,09.0,0000.0,0010.34,0005.32,0004.78
2024-01-27 21:30:00,SystemResetWarning,0835.0,5.01,000.00,025.0,024.4,000.0,033.1,026.3,08.8,0000.0,0010.64,0005.36,0004.78
2024-01-27 21:31:00,SystemResetWarning,0835.0,5.00,000.00,025.0,024.4,000.0,033.1,026.4,09.0,0000.0,0010.71,0005.35,0004.76
2024-01-27 21:32:00,SystemResetWarning,0835.0,5.00,000.00,025.0,024.4,000.0,033.1,026.4,08.8,0000.0,0010.51,0005.34,0004.77
2024-01-27 21:33:00,SystemResetWarning,0835.0,5.00,000.00,025.0,024.4,000.0,033.2,026.4,08.9,0000.0,0010.66,0005.37,0004.78
2024-01-27 21:34:00,SystemResetWarning,0835.0,4.99,000.00,025.0,024.4,000.0,033.2,026.4,08.8,0000.0,0010.71,0005.40,0004.80
2024-01-27 21:35:00,SystemResetWarning,0835.0,5.00,000.00,025.0,024.4,000.0,033.2,026.4,08.7,0000.0,0010.77,0005.40,0004.80
2024-01-27 21:36:00,SystemResetWarning,0835.0,5.00,000.00,025.0,024.4,000.0,033.2,026.4,08.7,0000.0,0010.79,0005.38,0004.79
2024-01-27 21:37:00,SystemResetWarning,0835.0,5.00,000.00,025.0,024.4,000.0,033.2,026.3,08.7,0000.0,0010.61,0005.34,0004.79
2024-01-27 21:38:00,SystemResetWarning,0835.0,5.00,000.00,025.0,024.4,000.0,033.2,026.4,08.7,0000.0,0010.61,0005.33,0004.78
2024-01-27 21:39:00,SystemResetWarning,0835.0,5.00,000.00,025.1,024.4,000.0,033.2,026.4,08.8,0000.0,0010.24,0005.34,0004.79
2024-01-27 21:40:00,SystemResetWarning,0835.0,5.00,000.00,025.1,024.4,000.0,033.2,026.4,08.7,0000.0,0009.81,0005.34,0004.79
2024-01-27 21:41:00,SystemResetWarning,0835.0,5.00,000.00,025.1,024.4,000.0,033.2,026.4,08.7,0000.0,0009.53,0005.31,0004.79
2024-01-27 21:42:00,SystemResetWarning,0835.0,5.00,000.00,025.1,024.4,000.0,033.3,026.4,08.7,0000.0,0009.44,0005.31,0004.79
2024-01-27 21:43:00,SystemResetWarning,0835.0,5.01,000.00,025.1,024.5,000.0,033.3,026.5,08.9,0000.0,0009.40,0005.30,0004.78
2024-01-27 21:44:00,SystemResetWarning,0835.0,5.01,000.00,025.1,024.5,000.0,033.3,026.5,08.6,0000.0,0008.89,0005.29,0004.78
2024-01-27 21:45:00,SystemResetWarning,0835.0,5.00,000.00,025.1,024.5,000.0,033.3,026.5,08.8,0000.0,0009.09,0005.23,0004.75
2024-01-27 21:46:00,SystemResetWarning,0835.0,5.00,000.00,025.1,024.5,000.0,033.3,026.5,08.8,0000.0,0009.12,0005.16,0004.69
2024-01-27 21:47:00,SystemResetWarning,0835.1,5.00,000.00,025.1,024.6,000.0,033.3,026.5,08.8,0000.0,0009.22,0005.07,0004.61
2024-01-27 21:48:00,SystemResetWarning,0835.1,4.99,000.00,025.2,024.6,000.0,033.3,026.5,08.8,0000.0,0009.43,0005.03,0004.53
2024-01-27 21:49:00,SystemResetWarning,0835.1,5.00,000.00,025.2,024.6,000.0,033.3,026.5,08.6,0000.0,0009.27,0004.94,0004.46
2024-01-27 21:50:00,SystemResetWarning,0835.1,4.99,000.00,025.2,024.6,000.0,033.3,026.5,08.5,0000.0,0009.13,0004.86,0004.38
2024-01-27 21:51:00,SystemResetWarning,0835.1,5.00,000.00,025.2,024.6,000.0,033.4,026.6,08.5,0000.0,0009.02,0004.79,0004.31
2024-01-27 21:52:00,SystemResetWarning,0835.1,5.00,000.00,025.2,024.6,000.0,033.4,026.6,08.5,0000.0,0009.23,0004.75,0004.26
2024-01-27 21:53:00,SystemResetWarning,0835.2,5.00,000.00,025.2,024.6,000.0,033.4,026.6,08.5,0000.0,0009.44,0004.69,0004.21
2024-01-27 21:54:00,SystemResetWarning,0835.2,4.99,000.00,025.2,024.6,000.0,033.4,026.6,08.7,0000.0,0010.07,0004.63,0004.16
2024-01-27 21:55:00,SystemResetWarning,0835.2,5.00,000.00,025.3,024.7,000.0,033.4,026.6,08.6,0000.0,0010.30,0004.56,0004.10
2024-01-27 21:56:00,SystemResetWarning,0835.2,5.00,000.00,025.3,024.7,000.0,033.4,026.6,08.4,0000.0,0010.67,0004.53,0004.07
2024-01-27 21:57:00,SystemResetWarning,0835.2,5.01,000.00,025.3,024.7,000.0,033.4,026.6,08.4,0000.0,0010.73,0004.58,0004.09
2024-01-27 21:58:00,SystemResetWarning,0835.2,5.01,000.00,025.3,024.7,000.0,033.4,026.7,08.5,0000.0,0010.61,0004.61,0004.10
2024-01-27 21:59:00,SystemResetWarning,0835.2,5.01,000.00,025.3,024.7,000.0,033.5,026.7,08.5,0000.0,0010.65,0004.62,0004.11
